This demonstration page uses our WeatherBlox Daily Observations layout. Learn more.

Left ArrowRight Arrow

44.8408, -93.29828

Hourly Observations for September 11, 2022

Temp ( °F °C ) Dew Point ( °F °C ) Humidity (%) Winds ( mph kmh ) Pressure ( in mb ) Visibility ( mi km ) Precip ( " mm )
12:53 am 00:53 Clear 57 13.9 49 9.4 74 74 Calm 30.18 1022 10 16 0.00 0.00
1:53 am 01:53 Clear 53 11.7 48 8.9 83 83 WNW 5 7 30.17 1022 10 16 0.00 0.00
2:53 am 02:53 Clear 55 12.8 47 8.3 74 74 Calm 30.17 1022 10 16 0.00 0.00
3:53 am 03:53 Clear 54 12.2 47 8.3 77 77 Calm 30.17 1022 10 16 0.00 0.00
4:53 am 04:53 Clear 54 12.2 47 8.3 77 77 Calm 30.17 1022 10 16 0.00 0.00
5:53 am 05:53 Clear 51 10.6 48 8.9 89 89 NW 5 7 30.18 1022 10 16 0.00 0.00
6:53 am 06:53 Partly Cloudy with Patchy Fog 52 11.1 48 8.9 86 86 Calm 30.19 1022 10 16 0.00 0.00
7:53 am 07:53 Sunny with Patchy Fog 53 11.7 49 9.4 86 86 Calm 30.20 1023 10 16 0.00 0.00
8:53 am 08:53 Mostly Sunny 58 14.4 51 10.6 78 78 Calm 30.20 1023 10 16 0.00 0.00
9:53 am 09:53 Mostly Sunny 63 17.2 50 10 63 63 Calm 30.20 1023 10 16 0.00 0.00
10:53 am 10:53 Mostly Sunny 68 20 48 8.9 49 49 NNE 5 7 30.19 1022 10 16 0.00 0.00
11:53 am 11:53 Mostly Sunny 71 21.7 42 5.6 35 35 N 3 6 30.17 1022 10 16 0.00 0.00
12:53 pm 12:53 Mostly Sunny 71 21.7 39 3.9 31 31 N 8 13 30.16 1021 10 16 0.00 0.00
1:53 pm 13:53 Partly Cloudy 72 22.2 40 4.4 31 31 NNW 9 15 30.14 1021 10 16 0.00 0.00
2:53 pm 14:53 Partly Cloudy 74 23.3 40 4.4 29 29 NW 9 15 30.11 1020 10 16 0.00 0.00
3:53 pm 15:53 Partly Cloudy 73 22.8 40 4.4 30 30 WNW 8 13 30.09 1019 10 16 0.00 0.00
4:53 pm 16:53 Partly Cloudy 72 22.2 41 5 33 33 NNW 8 13 30.09 1019 10 16 0.00 0.00
5:53 pm 17:53 Partly Cloudy 73 22.8 41 5 31 31 VRB 5 7 30.08 1019 10 16 0.00 0.00
6:53 pm 18:53 Partly Cloudy 71 21.7 42 5.6 35 35 NNW 8 13 30.07 1018 10 16 0.00 0.00
7:53 pm 19:53 Partly Cloudy 66 18.9 47 8.3 50 50 SSE 7 11 30.07 1018 10 16 0.00 0.00
8:53 pm 20:53 Mostly Clear 63 17.2 47 8.3 56 56 S 3 6 30.07 1018 10 16 0.00 0.00
9:53 pm 21:53 Mostly Clear 62 16.7 48 8.9 60 60 Calm 30.07 1018 10 16 0.00 0.00
10:53 pm 22:53 Partly Cloudy 61 16.1 48 8.9 62 62 Calm 30.06 1018 10 16 0.00 0.00
11:53 pm 23:53 Mostly Cloudy 59 15 49 9.4 69 69 Calm 30.05 1018 10 16 0.00 0.00

Powered by AerisWeather